Wetbulb
56.63 56.16 55.54 54.78 54.46 54.72 55.03 54.88 53.54 53.17 53.37 53.67 53.30 53.01 52.67 52.29 52.12 52.04 51.71 51.27 50.75 50.36 50.00 49.84 49.59 49.26 48.61 47.72 47.58 47.58 47.61 47.35 46.59 45.82 45.55 45.96 46.59 46.59 46.30 46.13 45.55 44.98 44.62 44.39 43.80 43.47 43.23 42.94 43.08 43.31 43.21 42.19 41.80 41.03 40.58 40.58 40.14 39.47 38.82 38.66 38.35 37.78 37.39 37.48 37.31 37.04 36.85 36.55 36.46
56.61 55.98 55.16 53.43 53.24 54.19 54.89 54.61 53.65 53.10 52.99 53.62 53.46 53.16 52.85 52.57 52.51 52.43 52.27 51.89 51.57 51.24 50.77 50.17 49.59 49.00 48.46 47.57 47.49 47.56 47.59 47.39 46.54 45.83 45.44 45.79 46.50 46.73 46.73 46.65 45.86 45.32 44.90 44.64 44.18 44.21 44.24 43.47 43.77 43.93 43.76 42.88 42.16 41.64 41.24 40.78 40.64 40.06 39.36 38.72 38.64 38.20 37.86 38.02 38.03 37.79 37.40 37.21 36.47
56.77 56.30 55.67 55.08 54.96 55.15 55.33 55.13 54.62 53.94 53.33 53.40 53.42 53.16 52.92 52.72 52.77 52.79 52.81 52.63 52.33 51.66 50.92 50.43 49.77 48.89 48.09 47.55 47.60 47.72 47.79 47.74 47.02 46.41 46.12 46.22 46.64 46.73 46.92 47.20 46.03 45.26 44.81 44.95 44.89 45.00 45.00 44.16 44.13 44.07 44.07 43.98 43.16 42.66 42.04 40.72 40.51 40.77 40.78 39.92 39.81 39.44 39.35 40.11 39.28 38.46 37.87 37.82 37.17
57.01 56.44 56.05 55.60 55.17 55.15 55.35 55.77 55.11 54.22 53.60 53.63 53.45 53.10 52.92 52.87 52.85 52.94 53.02 52.67 52.04 51.48 51.08 50.66 50.11 49.24 48.33 47.75 47.53 47.63 47.60 47.25 47.02 46.67 46.33 46.45 46.43 46.46 46.38 46.52 45.77 45.21 45.06 45.14 45.08 45.17 45.04 44.49 44.70 44.66 44.43 44.01 43.26 43.15 43.13 42.49 41.18 41.72 42.49 41.76 40.99 40.55 40.51 40.95 40.06 39.43 38.87 38.48 37.68
57.08 56.77 56.42 56.05 55.47 55.41 55.67 56.15 55.54 54.76 54.10 54.07 53.61 53.28 53.10 53.21 53.00 52.85 52.73 52.29 52.04 51.72 51.29 50.77 50.44 49.76 48.82 48.01 47.45 47.40 47.40 47.07 46.11 46.34 46.69 46.34 46.13 46.22 46.16 46.14 45.79 45.46 45.31 45.26 45.25 45.26 45.15 44.56 45.04 45.04 44.61 43.84 43.79 43.79 43.61 42.99 42.17 42.21 42.49 42.65 42.32 42.00 41.67 41.31 40.47 39.72 39.20 38.94 38.29
57.24 56.88 56.70 56.59 55.79 55.67 55.97 56.34 55.71 55.00 54.47 54.30 53.61 53.19 53.17 53.39 53.16 52.75 52.45 52.53 52.29 51.55 50.66 49.48 49.43 48.97 48.32 47.80 47.53 47.35 47.37 47.32 46.84 46.77 46.87 46.52 46.47 46.14 45.83 45.75 45.72 45.79 45.76 45.46 45.35 45.21 45.07 44.80 45.28 45.09 44.54 44.02 44.07 43.72 43.32 42.87 42.92 42.84 42.79 42.96 42.45 41.80 41.19 40.83 40.38 39.88 39.43 39.05 38.75
57.67 57.13 56.80 56.74 56.16 55.95 56.03 56.28 56.05 55.44 54.79 54.45 53.47 52.94 52.94 53.34 53.20 52.75 52.31 52.48 52.22 51.25 50.06 49.07 49.04 48.98 48.53 47.93 47.63 47.42 47.39 47.39 47.21 46.96 46.81 46.84 46.80 46.49 46.19 46.04 45.94 46.00 46.01 45.90 45.46 45.23 45.12 45.08 45.38 44.95 44.13 43.46 43.98 43.48 42.88 43.03 43.27 43.22 43.14 42.91 42.13 41.43 40.90 40.09 40.13 39.88 39.51 38.93 38.76
58.16 57.45 57.03 56.85 56.57 56.20 56.09 56.15 56.28 55.77 55.03 54.65 53.84 53.20 52.77 53.02 53.04 52.71 52.33 52.10 51.98 51.33 50.52 50.02 49.87 49.54 48.96 48.37 47.99 47.75 47.45 47.30 47.24 47.11 47.01 47.05 46.83 46.72 46.71 46.58 46.23 46.15 46.16 46.20 45.82 45.58 45.35 45.31 45.65 45.23 44.57 43.86 44.10 43.73 43.05 42.43 42.99 43.02 42.90 42.63 41.68 40.94 40.44 40.34 40.01 39.81 39.60 39.15 38.77
58.55 57.83 57.42 57.16 56.91 56.57 56.28 56.24 56.24 55.95 55.34 54.78 54.32 53.62 53.08 52.87 52.96 52.70 52.38 52.15 51.82 51.34 50.97 50.77 50.13 49.56 49.06 48.56 48.17 47.94 47.79 47.62 47.38 47.30 47.18 47.16 46.97 46.92 46.92 46.88 46.50 46.28 46.17 46.22 45.94 45.67 45.54 45.55 45.72 45.48 45.00 44.62 44.41 44.02 43.29 42.27 42.69 42.69 42.58 42.32 41.32 40.49 40.10 40.08 39.93 39.85 39.77 39.82 39.45
58.67 58.17 57.70 57.36 57.07 56.75 56.44 56.40 56.40 56.06 55.52 55.10 54.54 53.77 52.78 51.36 52.15 52.60 52.85 52.71 51.89 51.44 51.14 51.16 50.28 49.63 49.06 48.61 48.39 48.17 48.15 48.05 47.86 47.62 47.32 47.27 47.24 47.27 47.32 47.37 46.92 46.57 46.39 46.27 46.14 45.67 45.32 45.44 45.51 45.30 44.96 44.57 44.27 43.82 43.28 42.57 42.65 42.57 42.42 42.40 41.36 40.62 40.16 39.84 39.80 39.81 40.02 40.31 40.07
58.87 58.39 57.99 57.65 57.29 56.87 56.46 56.50 56.46 56.24 55.90 55.67 55.05 54.16 53.15 51.63 52.18 52.64 52.93 52.81 52.22 51.65 51.24 51.14 50.49 49.72 49.30 48.80 48.65 48.48 48.41 48.43 48.26 48.00 47.64 47.49 47.58 47.66 47.68 47.69 47.39 47.17 46.70 46.52 46.42 46.02 45.72 45.68 45.32 44.82 44.49 44.40 44.10 43.77 43.31 42.60 42.69 42.57 42.34 42.19 41.32 40.95 40.87 40.47 40.06 40.19 40.43 40.56 40.28
59.12 58.70 58.36 57.96 57.63 57.21 56.91 56.61 56.63 56.46 56.26 56.03 55.54 54.88 54.17 53.45 53.19 52.79 52.59 52.55 52.10 51.71 51.39 51.24 50.56 50.09 49.63 49.30 49.07 48.70 48.32 48.46 48.32 48.05 47.81 47.59 47.84 48.01 48.07 47.96 47.77 47.56 47.25 46.92 46.75 46.60 46.35 45.86 45.43 44.87 44.26 43.82 44.09 44.00 43.47 42.64 42.82 42.77 42.57 41.87 41.47 41.67 41.82 41.39 40.79 40.87 41.11 40.75 40.32
59.41 58.95 58.52 58.16 57.77 57.43 57.12 56.83 56.95 56.93 56.67 56.38 55.99 55.66 55.04 54.41 53.39 52.85 52.55 52.48 52.18 52.08 51.82 51.24 50.62 50.24 50.00 49.71 49.58 49.22 48.83 48.61 48.28 48.11 47.96 47.73 47.80 48.08 48.25 48.23 47.94 47.82 47.64 47.47 47.19 47.04 46.77 46.17 45.54 45.00 44.54 44.11 44.17 44.11 43.67 42.88 43.08 43.19 43.11 42.60 42.30 42.26 42.28 41.89 41.61 41.30 40.91 40.32 40.12
59.39 59.06 58.67 58.30 57.82 57.55 57.28 57.07 57.16 57.16 56.91 56.67 56.55 56.32 55.85 55.17 53.72 52.96 52.70 52.94 52.56 52.45 52.10 51.41 50.66 50.43 50.43 50.33 50.04 49.56 49.05 48.76 48.48 48.16 47.94 47.71 47.72 48.08 48.39 48.25 48.10 48.01 47.95 47.98 47.49 47.14 46.80 46.67 45.96 45.32 44.96 44.70 44.56 44.33 43.81 43.05 43.49 43.50 43.41 43.23 42.79 42.59 42.49 42.18 41.75 41.25 40.63 40.04 39.80
59.21 59.02 58.77 58.30 57.94 57.71 57.45 57.22 57.40 57.32 57.18 56.87 56.83 56.67 56.50 56.09 54.40 53.32 52.99 53.19 52.86 52.73 52.39 51.78 51.14 50.79 50.52 50.56 50.25 49.61 49.13 48.82 48.46 48.14 47.89 47.52 47.61 48.05 48.45 48.37 48.16 48.08 48.02 48.03 47.62 47.23 47.11 47.33 46.77 46.04 45.42 45.18 45.17 44.70 44.07 43.31 43.59 43.68 43.50 43.49 43.21 42.98 42.70 42.47 41.87 41.33 40.87 40.52 40.36
59.02 58.97 58.78 58.44 58.08 57.84 57.69 57.63 57.77 57.65 57.44 57.28 57.04 57.04 56.87 56.73 55.67 54.26 53.29 53.31 53.17 53.04 52.67 51.97 51.53 51.33 51.02 50.43 49.95 49.54 49.05 48.85 48.44 48.17 47.87 47.67 47.59 47.79 48.18 48.40 48.25 48.17 48.16 47.92 47.48 47.49 47.67 47.63 47.13 46.49 45.91 45.55 45.34 45.02 44.65 43.94 43.82 43.69 43.55 43.52 43.37 43.17 42.94 42.47 41.91 41.49 41.19 40.95 40.91
58.91 59.00 58.86 58.60 58.16 57.90 57.90 57.90 58.10 58.00 57.79 57.54 57.22 57.10 57.06 57.18 56.71 55.16 53.62 53.10 53.53 53.40 52.85 52.14 51.99 51.87 51.38 50.22 49.56 49.21 48.98 48.90 48.51 48.26 48.04 47.76 47.64 47.58 47.79 48.23 48.32 48.40 48.39 48.00 47.55 47.64 47.91 47.83 47.02 46.47 46.14 45.85 45.69 45.41 45.07 44.54 44.13 43.86 43.57 43.45 43.38 43.18 42.90 42.30 41.98 41.76 41.58 41.31 41.35
59.00 59.01 58.95 58.74 58.37 58.12 58.12 58.12 58.23 58.20 57.99 57.75 57.50 57.29 57.30 57.45 57.24 56.14 54.57 53.43 53.70 53.46 52.92 52.22 52.16 52.02 51.45 50.41 49.67 49.14 48.98 48.92 48.53 48.31 48.14 47.84 47.62 47.46 47.54 48.01 48.36 48.54 48.60 48.36 48.03 47.88 47.79 47.66 46.86 46.54 46.35 46.20 45.97 45.74 45.43 45.04 44.52 43.99 43.53 43.26 43.14 43.06 42.94 42.46 42.36 42.36 42.23 41.86 41.74
59.23 59.16 59.09 58.88 58.62 58.45 58.26 57.93 58.10 58.18 58.15 57.99 57.85 57.66 57.40 57.50 57.39 56.74 55.73 54.43 53.78 53.47 53.15 52.44 52.10 51.72 51.19 50.19 49.66 49.02 48.54 48.83 48.36 48.09 47.87 47.72 47.49 47.34 47.43 47.77 48.48 48.79 48.84 48.69 48.34 48.13 47.89 47.66 47.12 46.75 46.38 46.25 45.81 45.64 45.43 45.21 44.70 44.27 43.76 43.29 43.16 43.12 43.04 42.85 42.80 42.84 42.90 42.54 42.41
59.46 59.38 59.31 59.12 58.95 58.78 58.47 58.10 58.26 58.34 58.32 58.42 58.09 57.82 57.58 57.49 57.26 56.82 56.12 55.27 54.22 53.71 53.40 52.88 52.11 51.45 50.77 49.93 49.39 48.90 48.60 48.78 48.26 47.87 47.64 47.57 47.35 47.27 47.35 47.89 48.72 49.26 49.36 49.05 48.59 48.36 48.20 48.09 47.55 47.00 46.50 45.93 45.57 45.42 45.28 45.08 44.79 44.34 43.94 43.63 43.43 43.15 42.99 42.92 42.92 43.06 43.06 42.98 43.02
59.73 59.68 59.57 59.39 59.22 58.98 58.83 58.72 58.62 58.51 58.48 58.42 58.21 58.00 57.71 57.49 57.14 56.83 56.34 55.66 54.94 54.22 53.63 52.88 52.07 51.25 50.50 49.66 49.17 48.73 48.60 48.68 48.23 47.94 47.71 47.73 47.41 47.35 47.72 48.15 49.16 49.88 50.22 50.11 49.33 48.79 48.36 48.13 47.81 47.20 46.62 45.81 45.52 45.43 45.39 45.11 44.81 44.41 44.02 43.95 43.61 43.12 42.72 42.68 42.85 42.92 43.08 43.04 43.04
60.00 59.93 59.81 59.70 59.39 59.23 59.09 59.09 58.83 58.62 58.48 58.47 58.37 58.11 57.89 57.51 57.24 57.03 56.90 56.46 55.63 54.60 53.67 52.68 51.91 51.16 50.48 49.71 49.17 48.81 48.62 48.63 48.35 48.17 48.06 48.01 47.91 47.86 47.84 48.23 49.13 50.02 50.62 50.75 50.42 49.52 48.64 48.04 47.69 47.21 46.60 45.94 45.85 45.55 45.30 44.98 44.88 44.52 44.13 43.71 43.18 42.65 42.22 42.15 42.32 42.57 42.71 42.74 42.77
60.21 60.21 60.13 59.81 59.48 58.74 58.39 58.77 58.77 58.69 58.50 58.49 58.41 58.24 57.92 57.61 57.45 57.37 57.23 56.93 55.76 54.79 53.91 52.89 51.92 51.15 50.56 49.88 49.37 49.10 48.90 49.06 48.69 48.32 48.15 48.09 48.07 48.08 48.08 48.20 48.72 49.51 50.42 51.27 51.00 50.20 49.17 48.24 47.54 46.92 46.56 46.13 45.96 45.66 45.23 44.86 44.62 44.41 43.94 43.07 42.52 42.02 41.56 41.33 41.50 41.86 42.18 42.36 42.53
60.34 60.18 60.09 59.87 59.35 58.92 58.67 58.86 58.74 58.50 58.37 58.41 58.45 58.30 58.10 57.73 57.59 57.37 57.04 56.60 55.87 55.14 54.33 53.61 52.36 51.18 50.27 50.02 49.59 49.44 49.44 49.37 48.71 48.11 47.67 47.72 48.03 48.28 48.46 48.31 48.72 49.24 49.88 50.64 50.05 49.15 48.21 47.65 47.40 46.96 46.47 46.23 46.08 45.77 45.31 44.63 44.57 44.19 43.45 42.46 41.72 41.34 40.99 40.63 40.71 41.20 41.68 41.96 42.01
60.21 59.84 59.59 59.60 59.17 58.92 58.77 58.77 58.62 58.52 58.47 58.52 58.58 58.48 58.28 57.81 57.49 57.12 56.72 56.16 55.81 55.24 54.65 53.83 52.76 51.57 50.63 50.37 49.94 49.66 49.63 49.58 48.82 48.01 47.49 47.35 47.90 48.46 48.72 48.66 48.87 49.24 49.27 48.92 46.46 45.06 44.55 44.70 46.25 46.96 46.89 46.51 46.02 45.40 44.78 44.18 43.86 43.44 42.96 42.26 41.51 41.15 40.75 40.23 40.29 40.66 41.15 41.64 41.59
59.72 59.50 59.16 59.08 58.83 58.72 58.55 58.61 58.67 58.74 58.63 58.66 58.60 58.48 58.29 57.90 57.30 56.82 56.47 55.92 55.67 55.35 54.76 54.20 53.32 51.89 50.74 50.62 50.04 49.85 49.83 49.75 49.07 48.37 47.79 47.59 47.74 48.14 48.49 48.66 48.83 49.01 48.63 47.02 44.13 42.73 42.48 42.87 43.70 44.52 45.52 46.83 45.75 44.69 43.86 43.44 42.92 42.84 42.63 42.23 41.64 41.31 41.03 40.59 40.57 40.59 40.81 40.93 40.97
59.06 58.86 58.70 58.74 58.61 58.34 58.44 58.63 58.79 58.88 58.76 58.70 58.47 58.26 58.18 57.88 57.49 56.90 56.17 55.78 55.55 55.15 54.89 54.68 54.19 51.73 49.81 50.66 50.19 49.95 49.70 49.66 49.53 49.03 48.47 48.04 47.72 47.78 47.96 48.24 48.52 48.34 47.35 45.09 42.60 41.57 41.62 42.27 42.54 42.75 43.56 45.71 45.18 44.43 43.70 43.31 42.57 42.20 42.20 41.96 41.56 41.40 41.24 41.03 40.93 40.60 40.43 40.31 40.43
58.38 58.32 58.30 58.30 58.25 58.21 58.35 58.57 58.61 58.67 58.68 58.68 58.47 58.25 57.85 57.47 57.18 56.63 56.14 55.63 55.32 55.00 54.85 54.93 53.80 52.32 51.09 51.31 50.58 49.87 49.34 49.61 49.88 49.73 49.18 48.44 47.95 47.71 47.78 48.13 48.36 47.52 45.62 43.33 41.87 41.35 41.45 41.97 42.28 42.20 42.46 43.12 44.56 44.35 43.50 43.08 42.44 42.04 41.76 41.48 41.16 40.95 40.74 40.77 40.74 40.52 40.34 40.42 40.47
57.73 57.67 57.69 57.73 57.71 57.74 57.84 57.93 57.98 58.25 58.41 58.42 58.35 57.99 57.43 56.82 56.34 56.01 55.66 55.27 54.69 54.44 54.32 54.12 52.96 52.43 52.21 51.95 51.30 50.55 49.93 49.16 49.28 49.59 49.45 48.67 48.22 48.00 47.96 48.16 47.68 45.93 43.54 41.65 41.39 41.23 41.36 41.67 41.68 41.48 41.54 42.29 44.22 44.68 44.24 43.48 42.93 42.27 41.56 41.11 40.58 40.31 40.16 40.09 40.34 40.47 40.55 40.62 40.63
56.77 56.87 56.98 56.92 56.95 56.90 56.88 57.04 57.13 57.21 57.37 57.56 57.51 57.15 56.58 55.89 55.54 55.15 54.68 54.18 53.53 53.11 52.76 52.59 52.34 51.82 51.48 51.60 51.87 51.41 50.44 48.62 48.31 49.06 49.60 48.54 48.11 47.83 47.68 47.19 47.34 45.52 42.78 40.55 40.96 41.23 41.28 41.33 41.00 40.66 40.51 40.99 42.62 43.93 44.31 43.41 42.98 42.42 41.64 40.85 40.29 40.10 40.12 40.14 40.35 40.52 40.60 40.70 40.59
55.66 55.94 56.11 55.97 55.78 55.65 55.60 55.58 55.45 55.28 55.28 55.93 56.10 55.79 55.25 54.51 54.42 54.02 53.38 52.55 51.38 50.16 49.76 50.96 51.64 51.15 50.72 51.58 51.84 51.47 50.34 48.65 48.85 49.23 49.51 49.25 47.63 47.12 47.02 46.71 46.46 44.48 41.72 39.85 40.56 40.84 41.06 40.99 40.61 40.14 39.67 39.56 41.29 43.00 43.95 43.00 42.66 42.07 41.48 40.85 40.32 40.20 40.41 40.70 40.75 40.81 40.75 40.63 40.31
54.65 54.85 54.88 54.74 54.32 54.00 53.58 53.19 53.12 53.18 53.41 53.94 54.19 54.11 53.68 53.21 53.32 52.80 51.87 50.69 49.17 48.43 48.51 49.88 50.54 50.71 50.89 51.28 51.44 51.17 50.47 49.14 48.70 48.45 48.43 48.19 47.14 46.61 46.04 45.58 44.74 42.29 39.86 39.36 40.01 40.39 40.53 40.49 40.05 39.52 39.00 38.54 40.03 41.85 43.20 42.99 42.22 41.66 41.18 40.83 40.80 40.84 40.98 41.27 41.07 40.83 40.63 40.39 40.07
53.66 53.74 53.69 53.38 52.65 51.89 51.28 51.07 51.13 51.37 51.66 52.06 52.24 52.14 51.91 51.54 52.00 51.77 50.86 49.26 48.35 48.12 48.27 48.61 49.02 49.61 50.19 50.56 50.40 50.08 49.04 47.34 46.15 45.20 44.51 44.90 45.35 45.17 44.37 42.87 41.16 39.27 38.07 38.79 39.26 39.60 39.79 39.74 39.39 38.94 38.43 38.07 39.64 41.28 42.64 42.73 42.33 41.75 41.13 40.87 40.99 41.15 41.18 40.95 40.77 40.43 39.97 39.70 38.92
52.74 52.56 52.26 51.65 50.69 50.10 49.68 49.70 49.80 49.88 49.86 49.96 49.94 49.89 49.89 50.13 50.66 50.68 49.80 47.98 47.13 46.59 46.36 46.15 46.33 46.64 47.18 47.80 48.29 47.54 45.59 42.44 42.26 42.36 42.62 42.83 42.91 42.21 41.04 39.58 38.72 38.23 38.06 38.49 38.94 39.32 39.47 39.56 39.30 39.04 38.68 38.28 39.74 41.01 41.70 41.96 41.76 41.37 40.87 40.60 40.33 40.10 39.87 39.52 39.25 38.84 38.21 37.54 36.57
52.09 51.69 51.07 50.20 49.57 49.25 48.88 48.67 48.65 48.63 48.40 48.16 47.67 47.55 47.73 48.22 48.77 48.88 48.06 46.12 45.33 44.81 44.30 43.12 42.98 42.96 42.86 42.73 43.83 43.61 42.40 40.30 39.58 39.25 39.44 40.17 40.28 39.33 37.98 37.06 37.29 37.55 37.90 38.22 38.43 38.62 38.80 38.94 38.90 38.76 38.62 38.34 39.74 40.64 41.16 40.98 40.57 40.17 39.83 39.42 38.79 38.08 37.46 37.08 36.65 36.36 35.89 35.38 34.94
51.60 51.07 50.21 49.32 48.84 48.40 48.04 47.78 47.66 47.43 47.03 46.50 46.00 45.79 45.84 45.89 45.99 46.16 45.94 44.88 44.55 43.96 43.10 42.02 41.87 41.39 40.61 39.38 39.08 39.38 39.54 39.28 37.86 37.28 37.26 38.12 38.31 37.71 36.88 36.56 36.76 37.07 37.54 37.92 38.12 38.26 38.40 38.45 38.32 38.36 38.52 38.96 39.52 39.69 39.54 39.34 38.72 38.03 37.41 37.12 36.37 35.63 35.00 34.70 34.56 34.53 34.46 34.34 34.46
50.93 50.26 49.38 48.51 48.02 47.48 47.15 46.95 46.80 46.40 45.83 45.10 44.76 44.68 44.60 44.43 44.21 44.42 44.80 45.24 44.90 43.58 42.09 41.30 41.04 40.53 39.68 38.36 37.14 36.67 36.87 37.74 37.20 36.65 36.36 36.59 36.70 36.42 36.03 35.74 35.65 35.65 36.09 37.70 38.02 38.21 38.30 38.30 38.17 38.08 38.16 38.27 38.25 37.96 37.46 36.86 35.99 35.24 34.73 34.54 34.00 33.69 33.47 33.68 34.03 34.23 34.32 34.35 34.46
49.68 49.17 48.52 47.79 47.22 46.80 46.41 46.26 45.94 45.38 44.73 44.00 43.71 43.67 43.71 43.63 43.50 43.78 44.28 44.53 44.38 42.77 40.96 39.95 39.34 38.70 38.05 37.18 36.61 36.05 35.95 36.51 36.61 36.30 35.87 35.59 35.75 35.69 35.39 34.73 34.15 33.92 34.74 37.18 37.70 37.97 38.06 38.11 37.86 37.63 37.34 36.82 36.68 36.24 35.67 34.82 33.80 33.23 32.86 32.80 32.88 32.90 33.06 33.39 33.84 33.94 33.90 33.71 34.57
48.71 48.53 48.05 47.37 46.64 46.23 45.88 45.48 44.97 44.45 43.97 43.48 43.24 43.16 43.20 43.08 42.91 42.68 42.74 42.97 42.84 41.71 40.04 38.86 37.74 37.27 37.17 37.07 37.17 36.74 36.34 36.42 36.35 36.09 35.81 35.53 35.39 35.23 34.96 34.20 33.42 33.15 34.03 36.56 37.17 37.45 37.50 37.51 37.12 36.67 35.85 34.59 34.60 34.36 34.00 33.44 32.71 32.31 32.18 32.26 32.67 32.67 32.48 32.30 32.37 32.31 32.19 32.19 34.78
48.02 47.87 47.48 46.99 46.47 46.00 45.54 44.92 44.30 43.90 43.74 43.68 43.41 43.06 42.50 41.92 41.37 41.06 41.00 41.30 41.27 40.48 39.43 38.22 37.11 37.03 37.47 37.51 37.64 37.32 36.73 36.51 36.36 36.11 35.77 35.47 35.55 35.52 34.90 33.63 32.88 32.87 33.71 35.82 36.47 36.54 36.50 36.51 36.12 35.53 34.51 32.68 32.59 32.77 32.86 32.90 32.43 31.97 31.70 31.71 31.89 31.78 31.35 30.55 30.55 30.32 30.14 29.76 31.62
47.60 47.40 46.98 46.55 46.36 45.94 45.41 44.45 43.72 43.41 43.33 43.19 42.76 41.97 41.23 40.68 40.43 40.30 40.34 40.51 39.79 39.46 39.13 38.51 37.60 37.55 37.67 37.71 37.87 37.47 36.74 36.19 35.79 35.41 35.18 34.78 35.01 35.01 34.28 32.85 32.40 32.45 33.16 34.63 35.33 35.61 35.57 35.53 35.27 34.72 33.74 32.02 31.78 32.05 32.30 32.34 31.67 30.92 30.32 30.18 30.34 30.24 29.97 29.37 29.31 28.95 28.44 27.86 28.01
MSLP
1014.56 1014.76 1014.88 1015.08 1015.24 1015.36 1015.48 1015.64 1015.76 1015.92 1016.04 1016.16 1016.24 1016.32 1016.40 1016.48 1016.56 1016.64 1016.76 1016.88 1016.96 1017.04 1017.16 1017.24 1017.32 1017.48 1017.64 1017.84 1018.00 1018.12 1018.24 1018.36 1018.52 1018.64 1018.76 1018.80 1018.88 1018.96 1019.08 1019.20 1019.40 1019.56 1019.76 1019.88 1020.08 1020.28 1020.44 1020.56 1020.72 1020.88 1021.04 1021.16 1021.28 1021.40 1021.48 1021.60 1021.76 1021.96 1022.12 1022.24 1022.40 1022.56 1022.68 1022.84 1022.92 1023.04 1023.12 1023.20 1023.24
1014.32 1014.44 1014.64 1014.88 1015.04 1015.16 1015.32 1015.48 1015.64 1015.76 1015.88 1015.92 1015.96 1016.04 1016.12 1016.20 1016.28 1016.32 1016.40 1016.48 1016.56 1016.68 1016.84 1017.04 1017.16 1017.32 1017.52 1017.68 1017.80 1017.92 1018.08 1018.20 1018.40 1018.52 1018.64 1018.72 1018.76 1018.84 1018.92 1019.04 1019.20 1019.32 1019.48 1019.64 1019.88 1020.04 1020.20 1020.36 1020.56 1020.72 1020.88 1021.00 1021.16 1021.24 1021.32 1021.40 1021.56 1021.76 1021.96 1022.12 1022.20 1022.32 1022.44 1022.60 1022.68 1022.76 1022.88 1023.00 1023.08
1014.08 1014.24 1014.44 1014.60 1014.84 1015.04 1015.16 1015.28 1015.36 1015.48 1015.60 1015.68 1015.76 1015.80 1015.88 1015.92 1015.96 1016.00 1016.04 1016.16 1016.24 1016.44 1016.64 1016.80 1016.96 1017.12 1017.28 1017.48 1017.60 1017.76 1017.88 1018.04 1018.20 1018.40 1018.52 1018.60 1018.68 1018.76 1018.84 1018.92 1019.04 1019.16 1019.32 1019.48 1019.64 1019.84 1020.00 1020.16 1020.32 1020.44 1020.60 1020.76 1020.92 1021.04 1021.16 1021.32 1021.40 1021.56 1021.76 1021.88 1022.00 1022.08 1022.20 1022.32 1022.44 1022.56 1022.68 1022.84 1022.96
1013.80 1014.00 1014.16 1014.36 1014.56 1014.68 1014.76 1014.88 1015.00 1015.16 1015.32 1015.40 1015.52 1015.60 1015.68 1015.72 1015.76 1015.76 1015.76 1015.88 1016.04 1016.24 1016.36 1016.48 1016.68 1016.88 1017.04 1017.28 1017.48 1017.60 1017.72 1017.84 1018.04 1018.20 1018.36 1018.48 1018.60 1018.64 1018.76 1018.84 1019.00 1019.16 1019.28 1019.40 1019.52 1019.64 1019.80 1020.00 1020.16 1020.24 1020.32 1020.48 1020.72 1020.88 1021.00 1021.16 1021.32 1021.40 1021.48 1021.60 1021.76 1021.88 1022.04 1022.12 1022.20 1022.40 1022.56 1022.72 1022.80
1013.56 1013.64 1013.80 1014.00 1014.16 1014.28 1014.36 1014.44 1014.60 1014.80 1014.96 1015.12 1015.28 1015.40 1015.44 1015.48 1015.52 1015.56 1015.60 1015.76 1015.84 1015.92 1016.04 1016.16 1016.36 1016.60 1016.80 1017.04 1017.24 1017.40 1017.52 1017.68 1017.88 1018.04 1018.16 1018.32 1018.44 1018.56 1018.64 1018.76 1018.88 1019.04 1019.16 1019.32 1019.40 1019.52 1019.64 1019.84 1019.96 1020.08 1020.16 1020.32 1020.48 1020.60 1020.72 1020.92 1021.16 1021.28 1021.32 1021.40 1021.52 1021.72 1021.88 1022.04 1022.16 1022.32 1022.44 1022.60 1022.72
1013.28 1013.32 1013.48 1013.60 1013.80 1014.00 1014.08 1014.16 1014.32 1014.48 1014.68 1014.84 1015.04 1015.12 1015.16 1015.16 1015.24 1015.32 1015.40 1015.40 1015.48 1015.60 1015.76 1015.96 1016.16 1016.36 1016.60 1016.80 1017.04 1017.20 1017.36 1017.48 1017.64 1017.76 1017.92 1018.08 1018.28 1018.44 1018.60 1018.64 1018.76 1018.88 1019.00 1019.12 1019.24 1019.36 1019.48 1019.68 1019.80 1019.92 1020.04 1020.16 1020.32 1020.44 1020.56 1020.76 1021.00 1021.12 1021.20 1021.32 1021.44 1021.60 1021.76 1021.92 1022.04 1022.20 1022.36 1022.48 1022.68
1012.92 1013.08 1013.16 1013.32 1013.56 1013.76 1013.88 1014.00 1014.12 1014.28 1014.44 1014.60 1014.76 1014.80 1014.80 1014.80 1014.88 1014.96 1015.04 1015.08 1015.20 1015.44 1015.64 1015.84 1016.00 1016.16 1016.36 1016.60 1016.80 1017.00 1017.16 1017.32 1017.48 1017.60 1017.72 1017.88 1018.04 1018.24 1018.44 1018.52 1018.60 1018.76 1018.84 1018.92 1019.08 1019.20 1019.32 1019.48 1019.64 1019.76 1019.92 1020.04 1020.20 1020.32 1020.44 1020.60 1020.84 1021.04 1021.16 1021.28 1021.36 1021.52 1021.68 1021.88 1021.96 1022.12 1022.28 1022.44 1022.60
1012.64 1012.80 1012.92 1013.04 1013.24 1013.48 1013.60 1013.76 1013.88 1014.08 1014.24 1014.32 1014.36 1014.40 1014.44 1014.48 1014.56 1014.64 1014.76 1014.88 1015.04 1015.24 1015.40 1015.60 1015.76 1015.88 1016.08 1016.32 1016.48 1016.72 1016.88 1017.08 1017.20 1017.36 1017.52 1017.68 1017.88 1018.04 1018.20 1018.32 1018.48 1018.60 1018.68 1018.76 1018.88 1019.04 1019.16 1019.32 1019.44 1019.56 1019.68 1019.88 1020.00 1020.16 1020.32 1020.52 1020.68 1020.88 1021.04 1021.16 1021.32 1021.48 1021.60 1021.72 1021.88 1022.04 1022.16 1022.36 1022.52
1012.44 1012.56 1012.68 1012.84 1013.00 1013.16 1013.36 1013.48 1013.64 1013.80 1013.92 1013.96 1013.96 1014.00 1014.12 1014.24 1014.32 1014.44 1014.60 1014.72 1014.80 1014.92 1015.08 1015.28 1015.48 1015.64 1015.84 1016.04 1016.16 1016.40 1016.60 1016.76 1016.96 1017.12 1017.28 1017.48 1017.60 1017.80 1018.00 1018.16 1018.32 1018.44 1018.52 1018.60 1018.76 1018.92 1019.08 1019.20 1019.32 1019.36 1019.48 1019.64 1019.76 1019.96 1020.16 1020.36 1020.56 1020.76 1020.92 1021.12 1021.32 1021.48 1021.64 1021.76 1021.88 1022.04 1022.16 1022.32 1022.44
1012.08 1012.24 1012.44 1012.60 1012.76 1012.88 1013.08 1013.32 1013.44 1013.52 1013.60 1013.64 1013.68 1013.76 1013.88 1014.08 1014.16 1014.24 1014.32 1014.44 1014.60 1014.76 1014.88 1015.04 1015.20 1015.44 1015.64 1015.80 1015.96 1016.12 1016.32 1016.52 1016.72 1016.88 1017.04 1017.20 1017.36 1017.56 1017.76 1017.88 1018.08 1018.24 1018.40 1018.52 1018.64 1018.88 1019.04 1019.16 1019.28 1019.32 1019.40 1019.52 1019.68 1019.84 1020.04 1020.28 1020.48 1020.68 1020.88 1021.04 1021.24 1021.48 1021.64 1021.76 1021.88 1022.04 1022.16 1022.28 1022.32
1011.72 1011.88 1012.08 1012.32 1012.44 1012.64 1012.88 1013.12 1013.24 1013.32 1013.40 1013.44 1013.48 1013.60 1013.76 1013.88 1013.96 1014.04 1014.08 1014.20 1014.44 1014.56 1014.60 1014.76 1014.96 1015.24 1015.48 1015.60 1015.76 1015.92 1016.08 1016.28 1016.44 1016.64 1016.84 1017.00 1017.12 1017.28 1017.44 1017.60 1017.80 1018.00 1018.16 1018.32 1018.52 1018.76 1018.96 1019.08 1019.20 1019.32 1019.40 1019.52 1019.68 1019.88 1020.12 1020.32 1020.52 1020.72 1020.88 1021.04 1021.20 1021.36 1021.52 1021.68 1021.88 1022.04 1022.12 1022.16 1022.20
1011.36 1011.56 1011.76 1011.96 1012.16 1012.44 1012.72 1012.88 1013.04 1013.12 1013.16 1013.24 1013.32 1013.44 1013.56 1013.64 1013.76 1013.84 1013.96 1014.16 1014.24 1014.32 1014.36 1014.52 1014.76 1015.00 1015.20 1015.40 1015.60 1015.80 1015.96 1016.12 1016.28 1016.44 1016.60 1016.76 1016.88 1017.04 1017.20 1017.36 1017.60 1017.76 1017.96 1018.16 1018.32 1018.52 1018.72 1018.88 1019.04 1019.16 1019.36 1019.56 1019.76 1020.00 1020.20 1020.44 1020.68 1020.84 1020.96 1021.08 1021.24 1021.32 1021.36 1021.48 1021.72 1021.88 1021.92 1022.00 1022.08
1011.08 1011.32 1011.52 1011.76 1012.00 1012.24 1012.48 1012.64 1012.76 1012.84 1012.96 1013.04 1013.04 1013.16 1013.28 1013.36 1013.52 1013.72 1013.88 1013.96 1014.00 1014.04 1014.20 1014.44 1014.60 1014.80 1015.00 1015.24 1015.52 1015.72 1015.84 1015.96 1016.08 1016.24 1016.40 1016.56 1016.72 1016.88 1017.04 1017.20 1017.36 1017.56 1017.76 1017.92 1018.12 1018.28 1018.44 1018.64 1018.88 1019.16 1019.40 1019.60 1019.84 1020.04 1020.32 1020.52 1020.72 1020.84 1020.92 1021.00 1021.08 1021.12 1021.12 1021.16 1021.36 1021.60 1021.76 1021.88 1021.96
1010.80 1011.04 1011.28 1011.48 1011.76 1012.04 1012.20 1012.36 1012.44 1012.52 1012.60 1012.72 1012.80 1012.88 1013.00 1013.16 1013.32 1013.56 1013.72 1013.76 1013.84 1013.92 1014.08 1014.32 1014.48 1014.64 1014.80 1015.04 1015.32 1015.56 1015.68 1015.76 1015.88 1016.04 1016.20 1016.32 1016.52 1016.68 1016.84 1017.04 1017.16 1017.32 1017.52 1017.68 1017.88 1018.04 1018.24 1018.48 1018.84 1019.16 1019.40 1019.60 1019.76 1020.00 1020.24 1020.44 1020.60 1020.76 1020.84 1020.88 1020.88 1020.88 1020.84 1020.88 1021.04 1021.32 1021.52 1021.68 1021.76
1010.60 1010.76 1010.96 1011.20 1011.48 1011.72 1011.88 1012.04 1012.12 1012.20 1012.32 1012.40 1012.48 1012.60 1012.76 1012.88 1013.12 1013.32 1013.52 1013.60 1013.72 1013.80 1013.96 1014.16 1014.32 1014.44 1014.64 1014.84 1015.12 1015.32 1015.40 1015.52 1015.68 1015.88 1016.04 1016.16 1016.32 1016.48 1016.64 1016.80 1016.96 1017.12 1017.28 1017.48 1017.64 1017.88 1018.16 1018.44 1018.80 1019.08 1019.32 1019.48 1019.60 1019.80 1020.00 1020.16 1020.36 1020.48 1020.56 1020.56 1020.56 1020.56 1020.60 1020.68 1020.88 1021.08 1021.28 1021.44 1021.56
1010.32 1010.44 1010.68 1010.88 1011.16 1011.32 1011.48 1011.60 1011.72 1011.84 1011.96 1012.08 1012.16 1012.32 1012.48 1012.64 1012.88 1013.12 1013.32 1013.48 1013.60 1013.72 1013.88 1014.00 1014.12 1014.32 1014.52 1014.72 1014.88 1015.04 1015.16 1015.32 1015.48 1015.64 1015.84 1016.00 1016.16 1016.32 1016.44 1016.60 1016.76 1016.92 1017.08 1017.28 1017.48 1017.76 1018.04 1018.36 1018.64 1018.88 1019.16 1019.36 1019.48 1019.60 1019.68 1019.76 1019.88 1019.92 1019.92 1020.00 1020.04 1020.20 1020.32 1020.48 1020.72 1020.88 1021.04 1021.16 1021.28
1009.96 1010.16 1010.32 1010.56 1010.80 1010.96 1011.08 1011.20 1011.32 1011.44 1011.60 1011.72 1011.88 1012.08 1012.28 1012.44 1012.64 1012.88 1013.16 1013.28 1013.40 1013.56 1013.68 1013.76 1013.88 1014.04 1014.32 1014.48 1014.64 1014.80 1015.00 1015.16 1015.32 1015.48 1015.60 1015.76 1015.96 1016.16 1016.32 1016.44 1016.60 1016.76 1016.92 1017.16 1017.36 1017.60 1017.88 1018.16 1018.44 1018.76 1019.00 1019.24 1019.32 1019.32 1019.32 1019.40 1019.48 1019.52 1019.52 1019.60 1019.68 1019.88 1020.08 1020.28 1020.44 1020.60 1020.76 1020.88 1020.96
1009.60 1009.76 1010.00 1010.20 1010.40 1010.52 1010.64 1010.76 1010.88 1011.04 1011.16 1011.36 1011.60 1011.84 1012.04 1012.20 1012.40 1012.60 1012.84 1013.04 1013.12 1013.24 1013.36 1013.48 1013.60 1013.76 1013.92 1014.16 1014.32 1014.52 1014.76 1014.88 1015.04 1015.24 1015.44 1015.60 1015.76 1015.96 1016.12 1016.28 1016.40 1016.56 1016.76 1016.96 1017.20 1017.40 1017.64 1017.92 1018.28 1018.60 1018.88 1019.08 1019.12 1019.08 1019.08 1019.16 1019.28 1019.40 1019.48 1019.60 1019.64 1019.76 1019.92 1020.08 1020.16 1020.32 1020.44 1020.60 1020.72
1009.28 1009.48 1009.68 1009.88 1010.00 1010.12 1010.24 1010.40 1010.56 1010.72 1010.84 1011.04 1011.28 1011.52 1011.76 1011.96 1012.12 1012.32 1012.48 1012.64 1012.76 1012.88 1013.04 1013.16 1013.24 1013.36 1013.52 1013.76 1014.04 1014.24 1014.44 1014.64 1014.84 1015.04 1015.24 1015.44 1015.60 1015.80 1015.92 1016.08 1016.24 1016.40 1016.60 1016.76 1016.96 1017.16 1017.40 1017.60 1017.92 1018.28 1018.60 1018.80 1018.88 1018.88 1018.96 1019.04 1019.12 1019.24 1019.40 1019.48 1019.60 1019.72 1019.84 1019.96 1020.00 1020.08 1020.16 1020.32 1020.48
1009.08 1009.32 1009.44 1009.52 1009.60 1009.72 1009.88 1010.04 1010.24 1010.40 1010.60 1010.76 1011.00 1011.24 1011.44 1011.60 1011.80 1012.00 1012.16 1012.28 1012.40 1012.52 1012.64 1012.76 1012.92 1013.08 1013.28 1013.48 1013.76 1014.04 1014.24 1014.44 1014.68 1014.88 1015.08 1015.28 1015.48 1015.60 1015.76 1015.88 1016.08 1016.24 1016.44 1016.60 1016.76 1016.92 1017.16 1017.36 1017.60 1017.88 1018.16 1018.44 1018.60 1018.76 1018.84 1018.92 1019.04 1019.16 1019.24 1019.36 1019.48 1019.64 1019.76 1019.88 1019.88 1019.96 1020.04 1020.12 1020.32
1009.08 1009.16 1009.16 1009.16 1009.24 1009.40 1009.56 1009.72 1009.88 1010.12 1010.32 1010.52 1010.72 1010.88 1011.08 1011.32 1011.52 1011.72 1011.80 1011.88 1012.04 1012.20 1012.36 1012.52 1012.68 1012.88 1013.16 1013.36 1013.60 1013.84 1014.04 1014.28 1014.52 1014.76 1014.88 1015.04 1015.20 1015.32 1015.48 1015.68 1015.92 1016.16 1016.32 1016.48 1016.60 1016.76 1016.92 1017.12 1017.36 1017.68 1017.96 1018.20 1018.40 1018.56 1018.68 1018.84 1018.96 1019.04 1019.12 1019.24 1019.36 1019.52 1019.68 1019.76 1019.76 1019.76 1019.84 1019.96 1020.20
1009.04 1009.04 1008.88 1008.80 1008.92 1009.04 1009.20 1009.40 1009.60 1009.88 1010.08 1010.24 1010.40 1010.56 1010.76 1011.00 1011.16 1011.32 1011.48 1011.60 1011.80 1012.04 1012.20 1012.36 1012.56 1012.76 1013.00 1013.16 1013.40 1013.64 1013.88 1014.12 1014.32 1014.52 1014.68 1014.84 1014.96 1015.04 1015.24 1015.48 1015.76 1016.00 1016.20 1016.36 1016.48 1016.64 1016.80 1016.96 1017.20 1017.48 1017.76 1018.00 1018.16 1018.32 1018.44 1018.60 1018.76 1018.88 1018.96 1019.12 1019.28 1019.44 1019.60 1019.60 1019.60 1019.60 1019.60 1019.80 1020.04
1008.40 1008.32 1008.32 1008.44 1008.60 1008.80 1008.96 1009.16 1009.40 1009.60 1009.84 1010.00 1010.16 1010.32 1010.52 1010.72 1010.84 1011.04 1011.28 1011.48 1011.68 1011.88 1012.04 1012.20 1012.44 1012.60 1012.76 1012.96 1013.20 1013.48 1013.72 1013.92 1014.16 1014.32 1014.44 1014.60 1014.72 1014.88 1015.08 1015.32 1015.56 1015.76 1015.92 1016.16 1016.32 1016.52 1016.68 1016.88 1017.04 1017.24 1017.48 1017.72 1017.92 1018.08 1018.24 1018.40 1018.56 1018.72 1018.84 1019.00 1019.16 1019.32 1019.44 1019.48 1019.44 1019.40 1019.48 1019.64 1019.84
1007.48 1007.68 1007.88 1008.12 1008.32 1008.52 1008.72 1008.88 1009.16 1009.40 1009.56 1009.72 1009.88 1010.04 1010.24 1010.44 1010.60 1010.84 1011.12 1011.32 1011.48 1011.64 1011.84 1012.04 1012.24 1012.44 1012.64 1012.80 1013.04 1013.28 1013.52 1013.76 1013.96 1014.16 1014.32 1014.44 1014.60 1014.76 1015.00 1015.20 1015.36 1015.48 1015.64 1015.88 1016.16 1016.36 1016.52 1016.64 1016.84 1017.04 1017.20 1017.40 1017.60 1017.80 1018.00 1018.20 1018.36 1018.48 1018.68 1018.88 1019.04 1019.16 1019.28 1019.32 1019.28 1019.28 1019.32 1019.52 1019.68
1007.12 1007.36 1007.60 1007.84 1008.04 1008.20 1008.44 1008.68 1008.88 1009.08 1009.24 1009.40 1009.56 1009.76 1009.96 1010.16 1010.40 1010.64 1010.88 1011.12 1011.28 1011.44 1011.64 1011.84 1012.04 1012.28 1012.52 1012.76 1012.92 1013.12 1013.28 1013.48 1013.72 1013.96 1014.16 1014.32 1014.48 1014.68 1014.88 1015.04 1015.20 1015.32 1015.44 1015.64 1015.96 1016.16 1016.28 1016.36 1016.52 1016.72 1016.92 1017.16 1017.36 1017.60 1017.80 1018.04 1018.16 1018.28 1018.44 1018.64 1018.84 1019.00 1019.12 1019.16 1019.20 1019.24 1019.32 1019.48 1019.60
1006.84 1007.12 1007.36 1007.56 1007.76 1007.96 1008.16 1008.40 1008.56 1008.76 1008.96 1009.16 1009.36 1009.60 1009.76 1010.00 1010.24 1010.48 1010.72 1010.92 1011.12 1011.28 1011.44 1011.60 1011.84 1012.08 1012.32 1012.60 1012.84 1013.04 1013.24 1013.36 1013.52 1013.76 1014.00 1014.20 1014.44 1014.60 1014.76 1014.88 1015.00 1015.16 1015.32 1015.48 1015.72 1015.92 1016.04 1016.12 1016.20 1016.40 1016.60 1016.88 1017.16 1017.40 1017.64 1017.84 1017.96 1018.12 1018.28 1018.44 1018.60 1018.76 1018.88 1019.04 1019.12 1019.20 1019.32 1019.44 1019.56
1006.64 1006.88 1007.12 1007.28 1007.52 1007.76 1007.92 1008.04 1008.24 1008.44 1008.72 1008.92 1009.20 1009.36 1009.52 1009.76 1010.04 1010.32 1010.56 1010.76 1010.92 1011.12 1011.32 1011.48 1011.64 1011.92 1012.20 1012.48 1012.76 1013.04 1013.24 1013.40 1013.52 1013.68 1013.88 1014.08 1014.28 1014.44 1014.60 1014.72 1014.80 1014.96 1015.12 1015.28 1015.48 1015.60 1015.76 1015.88 1016.00 1016.16 1016.36 1016.60 1016.88 1017.16 1017.44 1017.60 1017.76 1017.96 1018.08 1018.24 1018.40 1018.56 1018.72 1018.84 1019.00 1019.16 1019.32 1019.48 1019.60
1006.44 1006.64 1006.88 1007.08 1007.32 1007.52 1007.68 1007.88 1008.08 1008.32 1008.52 1008.72 1008.92 1009.16 1009.32 1009.60 1009.88 1010.12 1010.36 1010.60 1010.80 1011.00 1011.16 1011.36 1011.52 1011.84 1012.20 1012.56 1012.80 1013.04 1013.20 1013.40 1013.56 1013.72 1013.88 1014.04 1014.16 1014.32 1014.44 1014.60 1014.76 1014.88 1014.96 1015.12 1015.28 1015.44 1015.56 1015.68 1015.80 1015.96 1016.16 1016.40 1016.60 1016.88 1017.16 1017.40 1017.60 1017.76 1017.96 1018.12 1018.24 1018.36 1018.48 1018.64 1018.84 1019.08 1019.32 1019.48 1019.60
1006.16 1006.44 1006.72 1007.00 1007.16 1007.32 1007.56 1007.76 1007.96 1008.16 1008.28 1008.44 1008.68 1008.92 1009.24 1009.48 1009.76 1010.00 1010.24 1010.48 1010.76 1010.96 1011.12 1011.32 1011.52 1011.88 1012.32 1012.64 1012.88 1013.08 1013.24 1013.36 1013.52 1013.72 1013.88 1014.04 1014.12 1014.16 1014.28 1014.48 1014.60 1014.76 1014.84 1015.00 1015.12 1015.28 1015.40 1015.52 1015.64 1015.80 1015.96 1016.16 1016.40 1016.64 1016.88 1017.16 1017.36 1017.60 1017.76 1017.96 1018.04 1018.20 1018.40 1018.60 1018.84 1019.04 1019.24 1019.44 1019.52
1006.08 1006.32 1006.60 1006.84 1007.04 1007.28 1007.48 1007.64 1007.84 1007.96 1008.12 1008.28 1008.52 1008.84 1009.12 1009.40 1009.72 1009.96 1010.20 1010.40 1010.64 1010.84 1011.04 1011.24 1011.60 1011.92 1012.28 1012.60 1012.88 1013.12 1013.28 1013.32 1013.48 1013.68 1013.96 1014.12 1014.16 1014.16 1014.24 1014.32 1014.44 1014.52 1014.68 1014.84 1014.96 1015.08 1015.24 1015.32 1015.48 1015.64 1015.84 1015.96 1016.16 1016.44 1016.72 1016.92 1017.16 1017.36 1017.60 1017.76 1017.96 1018.16 1018.36 1018.64 1018.88 1019.04 1019.20 1019.32 1019.40
1006.04 1006.28 1006.52 1006.76 1007.04 1007.24 1007.44 1007.56 1007.76 1007.88 1008.12 1008.32 1008.56 1008.80 1009.12 1009.40 1009.72 1009.96 1010.16 1010.36 1010.60 1010.76 1010.96 1011.16 1011.52 1011.80 1012.12 1012.52 1012.92 1013.20 1013.32 1013.32 1013.48 1013.68 1013.96 1014.16 1014.32 1014.32 1014.24 1014.28 1014.32 1014.44 1014.60 1014.76 1014.84 1014.96 1015.08 1015.20 1015.36 1015.56 1015.76 1015.88 1016.08 1016.32 1016.56 1016.76 1017.04 1017.24 1017.48 1017.72 1017.96 1018.20 1018.48 1018.76 1018.92 1019.04 1019.16 1019.24 1019.32
1006.04 1006.24 1006.48 1006.76 1007.00 1007.16 1007.32 1007.48 1007.72 1007.92 1008.16 1008.40 1008.60 1008.84 1009.12 1009.40 1009.68 1009.92 1010.16 1010.32 1010.56 1010.76 1011.00 1011.16 1011.44 1011.72 1012.08 1012.52 1012.96 1013.32 1013.52 1013.52 1013.60 1013.76 1013.92 1014.12 1014.20 1014.20 1014.20 1014.32 1014.36 1014.52 1014.64 1014.76 1014.80 1014.88 1015.04 1015.16 1015.32 1015.56 1015.72 1015.88 1016.04 1016.16 1016.36 1016.64 1016.92 1017.20 1017.48 1017.76 1018.04 1018.32 1018.56 1018.76 1018.88 1019.04 1019.12 1019.20 1019.32
1005.96 1006.20 1006.44 1006.72 1006.96 1007.16 1007.36 1007.56 1007.76 1007.96 1008.16 1008.44 1008.60 1008.88 1009.12 1009.40 1009.68 1010.00 1010.20 1010.36 1010.52 1010.76 1010.92 1011.16 1011.32 1011.60 1012.04 1012.48 1013.00 1013.36 1013.60 1013.64 1013.68 1013.76 1013.88 1013.96 1014.04 1014.16 1014.32 1014.44 1014.60 1014.72 1014.80 1014.84 1014.88 1014.92 1015.04 1015.16 1015.32 1015.52 1015.68 1015.84 1015.92 1016.08 1016.32 1016.60 1016.96 1017.32 1017.68 1017.96 1018.20 1018.40 1018.56 1018.76 1018.88 1019.04 1019.12 1019.24 1019.32
1005.92 1006.16 1006.44 1006.72 1006.96 1007.20 1007.44 1007.60 1007.84 1008.04 1008.28 1008.48 1008.76 1008.92 1009.16 1009.48 1009.76 1010.04 1010.24 1010.44 1010.60 1010.76 1010.88 1011.12 1011.32 1011.60 1012.04 1012.44 1012.92 1013.32 1013.64 1013.84 1013.88 1013.88 1013.88 1013.92 1014.04 1014.28 1014.48 1014.68 1014.80 1014.88 1014.88 1014.92 1014.92 1014.96 1015.04 1015.12 1015.24 1015.36 1015.56 1015.76 1015.96 1016.16 1016.40 1016.72 1017.12 1017.52 1017.88 1018.12 1018.32 1018.48 1018.60 1018.76 1018.88 1019.04 1019.16 1019.28 1019.40
1005.88 1006.16 1006.48 1006.76 1007.04 1007.28 1007.52 1007.76 1007.92 1008.16 1008.40 1008.68 1008.88 1009.04 1009.24 1009.52 1009.84 1010.08 1010.28 1010.48 1010.72 1010.88 1011.04 1011.24 1011.48 1011.76 1012.16 1012.48 1012.84 1013.16 1013.56 1013.84 1014.00 1014.04 1014.00 1014.00 1014.16 1014.44 1014.76 1014.96 1015.04 1015.04 1015.00 1015.00 1015.00 1015.00 1015.00 1015.04 1015.16 1015.32 1015.56 1015.80 1016.08 1016.36 1016.68 1017.00 1017.36 1017.72 1018.00 1018.20 1018.44 1018.60 1018.76 1018.84 1019.00 1019.16 1019.28 1019.36 1019.48
1005.88 1006.16 1006.48 1006.80 1007.08 1007.36 1007.60 1007.88 1008.08 1008.32 1008.60 1008.84 1009.04 1009.24 1009.48 1009.76 1010.00 1010.20 1010.40 1010.64 1010.88 1011.08 1011.28 1011.44 1011.64 1011.96 1012.32 1012.68 1012.92 1013.16 1013.44 1013.72 1013.96 1014.08 1014.08 1014.12 1014.32 1014.60 1014.92 1015.16 1015.16 1015.16 1015.12 1015.08 1015.04 1015.08 1015.12 1015.16 1015.32 1015.48 1015.76 1016.04 1016.32 1016.60 1016.92 1017.28 1017.60 1017.88 1018.08 1018.32 1018.56 1018.76 1018.88 1019.04 1019.16 1019.32 1019.44 1019.48 1019.48
1005.88 1006.16 1006.48 1006.88 1007.16 1007.48 1007.76 1008.00 1008.20 1008.48 1008.76 1009.00 1009.16 1009.36 1009.60 1009.88 1010.16 1010.36 1010.56 1010.76 1011.08 1011.32 1011.52 1011.68 1011.88 1012.16 1012.44 1012.76 1013.04 1013.28 1013.48 1013.60 1013.88 1014.04 1014.16 1014.24 1014.44 1014.72 1015.04 1015.32 1015.44 1015.44 1015.36 1015.28 1015.20 1015.24 1015.32 1015.40 1015.48 1015.68 1015.96 1016.28 1016.60 1016.88 1017.16 1017.52 1017.80 1018.04 1018.28 1018.52 1018.76 1019.00 1019.16 1019.24 1019.36 1019.48 1019.48 1019.48 1019.48
1005.88 1006.16 1006.52 1006.92 1007.28 1007.56 1007.80 1008.04 1008.32 1008.60 1008.88 1009.12 1009.32 1009.48 1009.60 1009.88 1010.16 1010.40 1010.64 1010.96 1011.28 1011.56 1011.76 1011.96 1012.16 1012.44 1012.60 1012.80 1013.12 1013.36 1013.52 1013.60 1013.80 1014.04 1014.24 1014.44 1014.56 1014.80 1015.16 1015.48 1015.64 1015.76 1015.72 1015.56 1015.48 1015.48 1015.56 1015.68 1015.80 1015.96 1016.16 1016.48 1016.76 1017.08 1017.40 1017.72 1018.00 1018.28 1018.52 1018.76 1019.04 1019.24 1019.32 1019.40 1019.44 1019.48 1019.48 1019.48 1019.48
1005.96 1006.24 1006.60 1006.92 1007.32 1007.60 1007.88 1008.16 1008.40 1008.68 1008.92 1009.16 1009.40 1009.56 1009.68 1009.84 1010.04 1010.36 1010.72 1011.04 1011.40 1011.76 1012.00 1012.24 1012.44 1012.64 1012.76 1012.92 1013.16 1013.48 1013.68 1013.80 1013.92 1014.12 1014.36 1014.60 1014.80 1015.00 1015.28 1015.64 1015.92 1016.08 1016.04 1015.96 1015.92 1015.92 1016.00 1016.12 1016.24 1016.36 1016.52 1016.76 1017.04 1017.32 1017.60 1017.88 1018.24 1018.52 1018.76 1018.96 1019.12 1019.24 1019.32 1019.40 1019.44 1019.48 1019.56 1019.60 1019.60
1006.08 1006.32 1006.64 1007.00 1007.32 1007.60 1007.92 1008.24 1008.48 1008.76 1008.96 1009.16 1009.44 1009.64 1009.84 1010.00 1010.16 1010.40 1010.76 1011.12 1011.56 1011.88 1012.16 1012.40 1012.64 1012.80 1012.92 1013.04 1013.32 1013.64 1013.96 1014.16 1014.32 1014.44 1014.68 1014.96 1015.16 1015.36 1015.60 1015.88 1016.20 1016.40 1016.44 1016.40 1016.40 1016.44 1016.48 1016.60 1016.72 1016.80 1016.96 1017.16 1017.40 1017.60 1017.88 1018.12 1018.44 1018.68 1018.88 1019.04 1019.12 1019.28 1019.40 1019.48 1019.56 1019.60 1019.72 1019.80 1019.88
1006.16 1006.44 1006.76 1007.08 1007.36 1007.68 1008.00 1008.32 1008.64 1008.88 1009.04 1009.24 1009.48 1009.72 1009.92 1010.12 1010.32 1010.56 1010.88 1011.28 1011.68 1012.00 1012.28 1012.56 1012.80 1012.96 1013.08 1013.28 1013.52 1013.88 1014.24 1014.56 1014.84 1015.00 1015.16 1015.32 1015.60 1015.80 1016.04 1016.24 1016.44 1016.64 1016.76 1016.76 1016.76 1016.80 1016.84 1016.92 1017.04 1017.16 1017.32 1017.52 1017.72 1017.88 1018.04 1018.20 1018.52 1018.76 1019.00 1019.16 1019.24 1019.36 1019.48 1019.60 1019.68 1019.76 1019.88 1020.00 1020.08
Wind_Speed
12 11 10 9 9 9 8 7 7 7 7 8 9 9 9 9 9 9 9 8 8 8 8 8 8 8 8 9 11 12 12 11 11 11 11 12 11 11 11 11 11 11 11 11 10 9 9 8 7 6 5 5 5 6 5 5 5 5 5 5 5 5 5 6 6 5 5 4 3
13 12 11 10 9 8 8 8 7 7 7 7 8 9 9 9 10 9 9 10 9 8 8 7 8 8 9 10 11 11 12 12 11 11 11 11 12 12 12 11 11 12 12 12 11 10 9 9 8 7 6 5 6 6 6 6 6 6 7 7 6 5 5 6 7 6 6 5 4
14 13 12 11 11 10 9 9 9 9 10 9 8 8 9 9 9 9 9 10 9 9 8 7 8 9 10 11 10 11 11 12 12 11 10 11 11 11 12 11 11 12 12 11 11 10 9 9 8 7 7 6 7 7 6 5 6 6 7 8 6 5 5 6 6 6 5 4 4
14 14 13 13 14 14 13 11 11 11 11 10 9 9 9 9 8 8 9 9 9 9 8 8 9 9 10 10 11 11 11 12 12 11 11 10 11 11 11 11 11 11 11 11 11 11 10 10 8 7 7 8 8 8 7 6 6 6 6 7 5 5 5 5 5 4 4 4 4
15 15 14 14 16 16 14 13 13 12 11 10 9 9 9 9 9 8 8 8 9 9 10 10 10 9 9 10 11 12 12 12 12 11 11 11 11 11 11 11 11 11 11 11 12 11 11 10 8 7 7 7 7 7 7 7 7 7 6 5 5 5 5 4 4 4 4 3 3
15 16 15 15 16 15 14 13 13 12 11 10 10 10 10 9 9 9 9 10 10 10 10 11 10 9 10 10 11 12 12 12 12 11 11 12 11 11 11 11 12 12 11 12 12 12 11 10 8 7 6 6 6 7 7 8 8 7 6 5 5 5 4 5 4 4 3 3 3
16 16 16 16 16 15 14 14 13 12 11 11 12 13 13 12 12 12 12 11 9 9 9 9 10 10 10 11 11 12 12 12 12 12 12 12 11 11 12 12 12 12 12 12 12 12 11 11 8 7 6 6 6 7 8 8 8 8 7 6 5 4 5 5 4 4 4 5 6
16 17 17 17 16 16 16 16 14 12 12 11 13 15 16 15 14 13 12 10 9 8 9 9 11 11 12 12 12 12 13 13 12 13 13 12 12 13 13 12 12 13 13 13 12 12 11 10 8 7 7 6 6 7 8 8 9 9 8 8 5 4 4 4 4 4 5 7 7
15 16 17 17 16 16 16 16 15 14 13 14 15 16 16 15 15 14 12 11 10 9 9 10 12 13 13 13 13 13 13 13 13 13 13 13 13 13 13 12 13 13 13 12 12 12 11 9 8 7 7 6 6 7 8 9 10 10 9 7 5 4 4 4 4 5 6 7 7
16 16 16 16 16 16 16 16 16 16 15 15 16 15 14 14 14 13 12 10 9 9 10 11 12 12 13 14 14 13 13 13 13 14 14 14 14 15 14 13 13 13 12 12 11 11 11 9 8 8 7 6 7 8 8 8 9 9 8 6 5 5 5 4 4 5 6 6 8
17 17 16 16 17 16 16 16 15 15 15 15 15 15 14 13 13 13 11 9 9 10 12 12 12 13 13 13 13 13 13 13 13 13 14 15 15 15 15 14 14 14 13 12 11 10 9 9 9 9 8 7 7 7 7 7 8 8 7 5 6 6 6 5 5 6 6 7 8
18 17 17 16 16 16 16 16 15 15 15 16 15 15 14 13 13 13 12 10 11 12 12 12 12 13 13 12 12 12 12 13 13 13 14 15 16 16 16 15 15 14 14 13 11 10 9 10 10 10 9 8 7 6 6 6 7 7 7 7 7 7 8 8 8 7 7 7 7
18 17 17 16 16 16 16 15 15 15 15 16 15 15 14 13 13 12 12 12 13 12 11 11 12 12 12 12 11 11 12 13 13 13 14 14 15 15 16 15 15 14 14 13 12 11 11 11 11 10 9 8 6 6 5 6 7 8 9 9 9 9 10 10 10 9 8 7 7
18 17 17 16 16 16 16 16 14 14 15 16 16 15 13 12 12 12 12 13 12 12 11 10 11 11 11 12 11 12 13 13 13 14 14 14 14 15 15 15 15 14 14 13 12 12 12 11 10 10 10 9 8 7 7 7 8 9 10 11 11 11 11 11 10 9 8 8 8
18 18 17 17 17 16 15 16 14 14 15 16 15 14 13 12 11 11 11 12 12 11 10 10 10 10 11 11 12 13 14 13 14 14 14 14 14 15 15 15 15 14 14 13 12 12 11 10 10 10 10 10 10 9 9 9 10 11 12 12 13 13 12 11 10 9 9 9 9
19 18 18 17 17 17 16 16 14 14 14 14 14 13 12 11 10 10 11 12 11 10 10 11 11 10 10 11 12 13 14 13 14 14 14 14 14 15 15 15 15 14 14 13 12 11 10 8 9 9 10 10 11 11 12 12 13 13 14 14 13 12 12 11 10 10 10 10 9
19 19 18 18 18 18 17 16 14 14 14 14 14 13 12 11 10 10 10 11 11 11 11 12 11 11 10 11 12 13 13 13 13 14 14 14 14 14 14 14 14 14 13 13 12 11 9 8 8 9 9 11 12 13 14 14 14 13 13 13 12 11 11 11 10 10 10 10 10
19 19 19 19 19 19 19 18 16 16 15 15 14 13 12 11 11 11 11 11 12 12 13 13 13 12 12 12 12 12 12 13 13 13 13 13 13 14 14 14 14 13 13 12 12 11 10 10 9 9 10 11 13 14 14 14 13 12 12 11 11 10 10 11 11 11 10 10 9
19 19 19 19 20 20 20 19 18 17 16 15 14 13 12 12 12 12 11 12 13 14 14 14 14 13 13 13 13 12 12 12 13 13 13 13 13 13 13 14 13 13 12 12 12 11 11 12 12 12 12 13 13 13 13 13 12 12 11 11 10 10 10 11 11 10 10 9 8
17 18 18 19 20 20 20 19 18 17 16 14 14 14 14 14 13 13 13 13 14 14 15 15 14 14 13 13 13 13 12 11 12 13 13 13 13 13 13 14 12 12 11 11 11 11 12 13 14 14 14 14 13 12 12 12 11 11 11 10 10 10 11 11 11 10 9 9 9
15 17 18 19 20 20 19 19 18 17 16 15 15 15 15 15 14 14 14 14 14 14 14 14 14 13 13 13 14 13 12 11 12 12 13 13 14 14 14 13 12 11 10 9 10 11 12 13 14 14 14 14 13 13 12 11 11 11 11 9 9 10 10 10 10 10 9 9 9
16 18 20 19 19 19 19 18 17 16 16 15 15 15 15 15 15 15 15 14 13 13 13 13 13 13 13 13 14 13 12 11 11 12 13 13 14 14 14 12 12 11 10 9 10 11 12 13 14 14 14 13 13 13 12 11 11 11 10 10 9 10 10 10 9 9 9 9 9
21 21 20 18 18 18 18 17 17 16 16 16 16 16 16 16 16 15 14 14 13 13 12 12 12 13 13 13 13 13 13 12 12 12 12 12 13 13 12 11 11 11 11 9 9 10 11 12 13 13 13 13 13 13 12 11 11 10 10 10 10 10 9 9 9 9 9 9 9
22 20 18 16 17 17 17 17 17 16 16 16 16 16 16 16 16 15 15 14 13 13 13 12 11 12 12 13 13 14 14 14 13 12 12 12 12 11 11 10 11 11 10 8 8 9 10 10 11 11 12 12 12 12 11 10 10 10 10 10 10 9 9 8 8 8 8 9 9
20 18 17 16 17 17 17 17 17 17 17 16 16 16 16 16 16 15 14 14 14 14 13 13 12 11 11 12 12 13 14 14 14 13 12 11 11 10 10 9 10 9 8 7 9 10 11 10 10 10 10 10 10 10 9 10 10 10 10 10 10 9 9 8 7 7 7 8 8
17 17 16 16 16 17 17 17 18 18 17 16 16 16 16 16 15 14 14 14 14 14 13 13 13 12 11 11 11 11 11 11 12 12 12 11 11 10 9 9 8 8 7 8 10 12 13 13 12 11 10 9 9 8 8 9 9 10 10 10 10 9 9 8 7 7 6 6 6
15 15 16 16 16 17 17 17 17 17 17 16 16 16 16 16 14 14 14 14 13 13 13 13 12 11 10 9 10 9 9 8 9 10 11 11 11 10 10 9 8 7 7 9 12 14 15 15 15 13 11 9 9 9 8 8 9 9 10 9 9 9 9 8 8 7 6 5 5
14 15 15 15 16 16 17 16 16 17 17 17 17 16 15 14 14 14 13 13 12 11 11 11 10 8 7 6 7 7 7 7 7 7 8 9 10 11 10 9 8 8 8 11 13 15 16 16 17 16 14 11 9 9 9 9 9 8 8 8 8 8 7 7 7 7 7 6 5
14 14 15 15 15 15 15 15 16 16 16 16 16 15 14 13 13 13 12 12 11 10 9 7 6 5 5 4 4 4 4 5 5 5 6 8 9 10 10 10 9 9 10 12 14 15 16 17 17 17 16 13 10 8 8 8 8 7 7 6 6 6 6 5 6 6 7 6 5
13 13 14 14 14 14 14 14 15 15 14 13 13 12 12 11 11 11 11 10 10 9 8 6 6 6 6 5 3 2 2 3 3 4 4 6 8 9 10 10 10 9 10 13 14 16 16 17 17 17 16 15 10 8 7 6 6 6 5 4 4 5 5 5 6 6 6 6 5
11 12 12 12 12 12 13 13 13 12 11 9 10 10 10 10 10 9 8 7 6 6 6 7 8 7 6 3 1 0 1 1 2 3 4 6 8 9 10 9 9 8 9 12 14 16 16 16 16 16 15 14 10 7 6 5 5 5 4 4 4 5 5 6 6 6 6 5 5
10 10 10 10 11 11 11 10 10 9 9 8 9 9 10 10 9 7 6 5 5 6 6 7 8 6 4 2 3 3 3 3 4 5 6 8 9 9 8 7 6 5 7 11 13 14 15 14 14 13 12 11 8 6 6 5 5 4 4 5 6 6 6 6 6 6 6 6 5
10 10 10 10 10 9 8 8 7 7 8 8 9 9 10 10 9 7 6 5 6 6 7 8 8 6 4 3 3 4 4 4 5 5 6 6 6 5 4 3 2 1 3 7 10 12 12 12 11 11 10 9 7 6 6 5 5 5 5 5 6 6 7 6 6 5 5 5 4
9 10 10 10 9 8 7 7 7 8 8 8 8 9 10 10 9 8 6 5 5 5 5 6 6 5 5 4 4 4 4 3 3 3 4 5 5 5 4 3 2 2 2 5 7 9 10 11 11 11 10 9 7 6 6 6 5 6 6 6 6 5 5 5 5 4 4 4 4
10 10 10 9 9 9 8 8 8 9 9 9 8 9 9 8 8 7 6 4 4 4 4 4 5 5 5 5 5 6 6 5 4 4 5 6 7 7 6 4 3 4 5 8 9 10 12 13 13 13 11 9 7 6 7 7 7 7 7 7 6 5 4 4 3 3 4 4 4
11 11 11 10 10 10 10 10 10 10 9 9 9 8 8 7 7 6 5 5 5 4 4 4 5 5 5 5 5 6 7 7 6 5 6 7 8 8 7 6 5 6 7 10 12 13 13 14 14 13 11 8 7 6 7 7 6 7 7 7 5 4 4 3 3 3 3 3 4
11 11 12 11 11 11 10 10 10 10 10 9 8 8 8 7 6 5 5 5 5 5 4 5 5 5 5 5 5 5 6 8 7 7 7 8 9 9 8 7 6 6 7 10 12 13 14 15 14 13 11 8 7 7 7 6 5 5 6 6 4 3 3 2 2 3 3 3 4
11 12 12 12 11 11 11 10 10 10 10 8 7 6 6 6 5 5 5 5 5 5 5 5 6 6 6 6 7 7 7 8 8 8 8 8 9 10 10 8 6 5 6 9 11 12 13 13 12 11 9 7 7 6 6 5 5 5 5 5 4 4 3 3 3 4 5 7 9
11 12 12 12 12 11 11 11 10 10 10 8 7 7 6 5 5 5 6 6 6 6 5 5 6 7 7 8 9 8 8 8 8 9 9 9 9 10 10 9 6 6 7 9 11 11 12 12 11 10 9 7 6 6 5 5 5 5 5 5 5 5 5 5 5 5 7 9 12
11 12 12 12 12 12 11 11 10 9 9 9 9 8 7 5 5 6 7 8 7 7 7 7 7 7 8 9 10 10 10 9 9 9 9 9 10 11 11 10 9 9 10 12 14 14 14 14 13 12 10 7 6 6 5 6 6 6 6 5 5 5 5 5 5 5 6 7 9
11 11 12 12 12 11 11 11 10 9 8 9 9 8 6 6 6 6 7 8 8 8 8 8 8 9 9 10 10 11 11 10 10 10 10 11 12 12 12 11 11 11 12 14 16 17 17 17 16 15 12 8 7 6 6 6 6 7 6 5 5 5 4 4 5 5 5 5 5
Wind_Direction
191 190 190 191 192 193 194 196 194 194 194 195 197 197 197 198 201 202 202 201 203 204 204 205 203 203 202 198 197 198 199 198 195 194 196 197 197 194 192 190 188 188 189 190 186 184 184 185 184 186 189 192 192 192 190 182 173 172 175 179 181 179 178 181 187 186 184 183 178
194 193 191 190 192 194 195 197 196 195 196 198 199 198 198 200 202 203 203 203 204 204 203 204 202 201 200 199 198 199 199 200 196 195 196 199 199 197 194 192 191 191 190 189 186 186 186 186 186 188 192 194 193 194 193 186 173 172 177 185 185 182 181 187 192 190 185 183 177
196 194 192 192 193 195 197 198 198 198 197 199 200 200 199 201 204 205 205 204 203 202 201 203 202 200 197 197 198 199 201 201 197 196 197 200 201 199 197 195 194 194 193 191 190 189 190 188 190 192 194 195 195 196 195 188 176 176 182 190 189 186 185 193 194 189 184 182 176
197 196 194 194 195 197 198 200 199 198 197 198 200 201 202 203 206 208 208 205 202 201 201 202 201 198 196 194 196 199 201 202 199 198 198 200 201 201 199 197 195 195 195 194 194 193 192 190 193 196 198 196 196 197 197 189 183 185 191 195 191 189 191 197 191 186 182 184 179
200 198 197 197 197 199 200 202 200 198 198 198 199 202 205 205 207 208 209 205 203 202 201 199 199 197 195 193 195 198 201 202 200 199 199 200 201 201 200 198 197 197 196 196 196 196 194 191 196 200 201 197 196 198 196 187 187 192 198 199 195 194 194 196 191 186 182 183 181
201 201 200 199 199 200 203 204 201 199 197 198 199 203 206 206 205 206 207 207 205 202 198 196 196 195 193 192 194 197 199 201 201 201 201 200 200 200 200 200 199 198 197 197 198 197 195 192 198 203 202 199 201 200 195 186 190 196 202 203 201 197 194 195 192 187 184 188 188
202 202 202 201 200 201 203 205 203 200 199 200 202 204 206 207 206 205 206 207 204 199 195 194 196 195 193 191 194 196 198 200 202 202 202 201 200 200 200 201 201 200 199 199 198 197 196 193 198 201 201 199 201 200 196 190 193 198 203 206 203 196 193 197 193 189 188 192 192
203 203 203 203 201 201 203 205 204 202 201 204 205 206 207 208 207 206 205 205 203 198 195 195 197 196 195 192 194 196 198 199 201 203 203 203 201 201 201 201 202 203 203 201 199 198 198 196 200 201 199 197 199 198 196 193 195 199 203 206 203 198 194 197 195 193 192 193 195
205 205 205 205 203 203 203 205 204 204 204 207 208 208 208 209 208 206 204 205 203 200 196 197 197 197 196 195 195 196 197 199 201 202 203 204 203 203 203 202 203 205 205 204 202 200 200 200 205 204 201 198 199 198 195 192 196 200 203 204 200 198 197 199 196 195 195 195 198
205 205 205 205 205 204 203 205 206 207 208 210 211 210 208 208 209 208 206 205 203 200 199 199 196 196 197 198 197 197 198 199 201 202 203 205 205 205 205 204 204 205 207 206 204 202 201 203 208 209 207 202 202 199 194 190 195 199 202 202 196 193 196 200 198 198 200 201 203
206 204 204 205 205 204 203 204 208 210 211 213 213 211 209 208 210 210 208 205 203 202 202 200 195 195 197 200 200 199 199 200 201 202 204 206 207 207 206 206 206 206 206 206 203 202 202 205 210 211 210 205 204 201 194 188 193 198 202 202 194 192 193 197 197 200 203 206 205
206 205 204 205 205 204 204 205 209 211 213 215 215 213 210 209 210 210 209 206 205 205 204 200 196 195 197 200 202 202 201 201 202 202 204 206 208 208 208 208 207 207 206 206 203 202 204 207 209 210 210 205 204 201 193 184 189 196 202 202 196 195 196 197 197 201 204 204 204
207 205 204 205 204 204 205 206 210 212 214 216 216 214 212 211 209 208 207 208 208 207 204 200 197 197 198 199 203 205 204 202 202 203 204 206 207 208 209 209 208 208 207 206 204 205 206 207 207 207 207 204 201 196 189 182 190 197 203 203 201 201 201 199 198 200 200 198 200
207 206 205 204 203 204 205 208 210 212 214 215 216 215 213 211 208 206 207 209 210 208 205 201 200 199 199 199 204 207 207 204 203 203 205 205 206 207 208 209 208 208 207 207 206 206 206 209 207 205 204 202 197 191 186 184 193 201 205 206 206 206 205 202 198 196 194 193 196
207 206 205 203 202 204 206 208 210 212 214 215 215 214 213 211 206 205 206 210 211 209 206 202 202 202 202 202 207 208 206 203 203 203 205 205 205 206 207 208 208 208 208 208 206 206 208 213 210 205 201 200 195 191 188 189 196 202 206 208 208 208 206 203 198 194 192 192 195
207 206 205 203 203 204 206 208 210 212 213 214 213 212 212 211 206 203 204 209 210 210 207 205 203 203 204 207 209 207 204 203 203 203 204 205 205 205 207 207 207 207 207 207 205 206 209 213 207 201 197 198 197 195 193 195 198 202 205 207 207 206 204 201 197 194 193 193 194
206 206 205 203 204 205 206 208 210 211 211 212 210 209 209 210 206 203 203 206 208 209 209 208 204 203 205 209 207 205 203 203 204 204 204 205 204 204 205 206 207 207 206 205 204 204 205 206 198 194 194 199 202 202 201 200 202 204 205 206 204 203 201 198 196 194 193 193 195
206 205 205 204 205 206 207 208 209 210 210 209 207 205 205 207 207 204 203 203 205 207 208 208 206 205 205 205 203 201 201 203 204 205 205 204 203 203 203 204 205 205 204 204 203 201 198 194 189 190 196 203 207 207 206 205 205 207 207 208 205 203 201 199 197 195 193 193 194
206 206 206 206 206 207 208 208 209 209 209 207 205 202 202 204 206 205 203 203 204 206 207 207 207 206 204 201 199 199 201 203 204 204 203 203 202 202 202 201 201 201 202 203 201 199 195 190 188 192 198 206 210 210 209 208 208 208 208 208 207 206 205 202 200 197 194 191 191
207 207 207 208 208 208 208 208 208 209 208 206 203 201 200 201 204 205 205 204 204 205 206 208 208 207 204 199 198 198 200 201 202 202 202 201 201 201 201 199 199 200 201 201 201 199 197 195 194 196 201 206 208 209 209 209 209 209 208 208 208 209 208 206 203 199 194 189 189
211 211 211 210 209 208 208 207 208 207 207 205 203 201 200 200 202 205 206 206 204 205 207 210 209 206 202 199 197 198 199 199 200 201 202 201 201 201 200 199 199 200 202 202 203 202 200 198 198 200 203 206 208 208 208 208 210 209 208 207 209 210 210 209 205 200 194 190 190
215 217 215 210 208 207 207 206 206 205 205 205 203 201 200 199 201 204 207 209 207 207 208 210 208 205 202 198 197 196 197 198 199 200 202 202 202 202 201 200 201 203 206 207 207 206 203 200 200 201 203 206 208 209 209 208 209 209 209 207 208 210 211 210 205 199 194 192 192
214 215 213 208 206 206 206 205 204 203 203 204 203 202 201 199 200 204 208 213 211 209 207 207 206 204 201 198 196 195 196 197 199 200 202 202 202 202 202 201 202 205 208 211 211 209 206 202 200 200 201 205 208 209 209 209 209 209 208 207 208 209 210 210 204 199 195 194 195
210 210 208 205 203 203 203 203 202 201 202 203 203 202 201 200 200 203 207 212 212 209 207 205 204 202 199 197 195 195 195 197 198 199 200 201 201 201 202 201 202 204 207 211 211 208 203 200 199 199 200 202 206 207 208 207 208 207 206 205 206 207 209 208 204 200 198 197 198
207 205 203 201 200 200 200 200 200 200 200 201 202 202 201 201 201 202 204 208 209 208 206 204 201 198 197 196 196 196 196 197 196 197 198 199 200 201 201 200 201 203 205 209 208 202 197 193 193 196 199 201 202 204 203 204 204 204 203 202 202 203 204 205 203 201 200 198 197
203 200 198 197 196 196 197 198 199 199 200 200 201 202 202 202 201 201 203 205 206 206 205 202 199 196 194 194 194 196 199 200 197 195 195 196 197 199 199 200 200 201 203 206 200 196 192 189 189 190 193 196 197 197 198 201 202 202 202 200 198 198 198 199 200 199 197 193 187
197 195 194 193 193 193 195 196 198 199 200 200 201 203 203 202 200 200 201 204 205 204 203 202 198 194 189 189 190 195 200 204 201 198 196 194 194 196 198 200 200 199 198 196 192 190 189 188 188 187 187 190 191 192 194 198 200 201 201 199 197 195 194 194 194 191 187 181 173
191 189 189 189 190 192 194 195 197 199 200 201 202 203 203 201 199 199 200 202 202 201 201 202 195 186 177 180 186 191 197 203 205 206 203 198 195 194 197 203 204 201 195 191 189 189 189 190 189 187 186 186 187 188 189 193 196 198 198 196 193 191 190 190 188 182 177 174 168
185 184 184 186 189 191 193 194 197 200 201 201 201 200 200 199 198 197 197 197 196 195 195 196 181 169 165 174 175 180 190 200 205 208 209 207 201 198 200 206 205 200 192 188 188 190 190 191 190 188 186 183 184 186 188 190 190 190 188 187 184 183 183 184 180 176 173 170 165
176 176 179 183 187 190 193 195 198 200 201 200 198 195 193 193 192 190 187 186 187 187 185 173 160 157 158 158 148 150 176 192 197 207 215 216 211 207 205 206 202 196 189 187 188 190 190 190 189 187 185 183 182 182 182 180 176 174 173 171 168 169 172 172 171 170 168 164 159
168 171 175 181 187 191 194 197 199 199 198 196 190 185 180 178 175 171 167 168 172 171 165 157 153 154 156 158 159 233 246 225 224 232 235 234 228 219 210 204 198 191 186 185 187 188 188 187 186 184 183 181 178 174 168 159 156 155 155 156 159 160 162 162 164 164 163 158 156
163 168 174 181 188 192 194 194 193 191 188 183 177 171 166 163 154 145 136 138 144 150 155 159 160 164 179 230 261 268 263 252 245 241 237 231 224 215 206 200 190 182 181 183 184 184 182 180 178 176 174 172 167 160 152 144 140 139 142 148 154 156 158 158 161 161 161 159 158
162 168 174 179 183 183 179 174 170 167 165 164 162 160 157 152 140 129 121 124 136 147 157 163 166 174 193 231 244 244 238 232 228 223 217 207 199 191 179 159 131 143 175 182 177 173 168 163 158 154 150 145 140 137 137 135 130 129 133 142 148 151 153 153 157 159 160 158 155
162 165 167 168 165 159 152 146 143 142 143 146 150 152 150 144 136 130 127 126 132 141 147 151 148 148 155 177 190 187 180 177 173 162 151 142 132 118 101 77 52 57 125 154 150 144 138 133 129 125 120 114 110 112 118 124 123 126 131 135 138 141 145 147 148 150 151 151 148
159 157 155 151 145 139 135 131 130 130 132 135 139 141 141 138 135 132 129 123 116 114 113 111 108 108 112 123 134 140 142 143 134 123 116 111 103 95 84 65 52 66 91 111 111 111 111 110 109 108 105 102 102 106 112 117 121 127 130 131 133 134 135 135 136 142 147 150 146
153 148 143 139 134 131 129 128 127 127 128 130 132 133 131 129 126 121 114 105 101 100 100 95 93 95 98 102 111 122 131 134 126 114 105 102 100 96 87 74 61 65 80 96 99 100 101 101 102 101 100 100 102 106 110 114 119 122 125 124 127 129 130 131 135 141 144 142 130
144 139 135 132 131 130 129 128 127 126 127 130 130 130 128 125 117 108 100 97 101 103 101 95 97 100 104 104 103 108 117 124 119 111 104 102 102 99 94 82 67 63 74 91 97 99 100 100 101 101 101 102 104 106 107 109 110 110 110 110 109 108 110 118 123 115 100 84 79
135 133 132 131 131 131 130 129 128 128 129 129 128 127 126 124 117 110 106 106 111 111 105 95 99 103 105 102 98 97 99 105 108 107 105 102 104 103 100 91 75 62 67 82 91 94 96 97 98 100 102 106 108 108 107 102 96 92 91 91 88 81 74 74 75 70 64 59 63
132 131 131 132 132 131 130 129 129 129 129 128 125 122 120 117 113 111 113 116 120 119 112 104 104 104 103 99 94 89 85 85 93 98 100 100 99 98 97 93 77 58 52 60 69 74 76 78 79 82 85 92 95 97 96 92 86 82 80 80 80 73 67 63 63 61 60 58 65
130 130 130 130 130 129 128 126 128 128 128 127 124 122 117 112 106 106 109 114 118 119 115 111 108 105 101 97 93 89 83 78 78 83 87 87 85 84 84 84 73 60 53 53 58 61 63 64 65 66 69 73 75 80 86 89 86 82 78 75 76 73 67 60 61 61 61 59 65
127 127 127 127 127 126 125 123 124 124 124 124 123 121 117 110 104 103 105 109 113 115 114 111 108 103 100 97 95 92 86 77 69 68 71 74 73 74 76 78 75 70 64 62 65 67 68 69 70 71 72 75 76 80 85 89 86 82 78 74 74 73 69 60 56 56 56 56 60